CAPE
631 1000 2646 1890 1800 1760 1572 1777 2063 2560 2624 2566 2461 2557 2699 2669 2519 2772 2632 2278 2171 2480 2439 2343 3015 2858 2713 2290 2196 2083 1854 2135 2245 2315 2242 1939 1704 1569 1396 1864 2381 1849 2036
712 1378 2797 2104 1713 1677 1576 1640 1968 2137 2318 2518 2435 2461 2572 2340 1902 2166 2281 1810 1854 1935 2179 2184 2442 2623 2805 2443 2758 2735 1877 2131 2095 2152 2372 2509 1607 1659 1470 1727 2462 2485 2155
846 1345 2190 2392 1834 1654 1706 1740 1711 1694 1888 2297 2255 2287 1768 1535 2016 2156 1899 1869 1756 1747 1981 2103 2283 2472 2417 2297 2227 2547 2784 2766 2556 2455 2084 1305 1625 1863 2717 1780 1852 2390 2587
968 1416 1770 2328 2299 1639 1626 1686 1595 1610 1590 1738 1933 1931 1469 1472 1380 1319 1765 1932 1775 1931 1838 1978 1498 1451 1659 1826 2066 2112 1928 2157 2091 1674 275 435 1785 1992 2088 2193 1318 1695 2120
895 1408 1796 2505 2293 1593 1512 1516 1661 1600 1459 1444 1496 1450 1346 1164 1219 1233 1116 1350 1626 1460 1503 1781 1692 1258 1041 876 1002 1004 1657 1790 1558 265 92 142 309 1840 1777 1750 1604 1497 1648
910 1063 2070 2635 1614 1442 1457 1350 1480 1362 1366 1411 1462 1453 1390 1657 2030 1267 1041 1198 708 403 708 1113 1439 1107 896 337 628 882 639 1562 1499 88 14 65 94 1839 1792 1696 1542 1527 1600
884 1101 1727 2712 2169 1492 1535 1380 1482 1440 1429 1554 1475 1524 1533 1487 1285 1516 1500 1398 1333 986 791 941 1170 1323 1193 666 473 714 727 576 963 52 2 2 0 968 2065 1849 1945 1777 1745
1137 1469 1701 2473 2589 1840 1774 1765 1751 1546 1591 1653 1980 2328 1862 1612 1468 1353 1436 1397 1311 1237 1174 777 719 1592 1361 1031 1049 705 985 973 1099 93 5 0 28 910 1952 2145 2537 2405 1952
1412 1573 1659 1728 2131 1930 2080 1925 1840 1566 1960 2225 2135 2015 1720 1554 1409 1442 1330 1158 1180 1046 1082 924 950 1114 1030 1091 1454 1395 1337 1026 330 64 0 0 102 1429 2209 2467 2412 2463 2529
1448 1532 1522 1497 1675 1866 1872 2225 1894 1690 1779 2197 2119 1626 1502 1587 1602 1360 1492 1380 1206 956 824 907 930 903 1084 1148 1022 1084 1040 907 31 0 4 1 11 661 1828 2443 2267 2455 2688
1361 1485 1383 1306 1287 1588 1756 2196 2541 2337 2369 2031 1750 1554 1893 994 1003 1213 1270 1539 1205 1223 884 614 1091 1243 1280 1290 1129 945 1131 559 147 0 0 57 99 301 1426 2378 2350 2598 2695
961 853 978 798 1142 1142 1463 1225 1451 1234 1401 1429 1309 759 1121 825 500 830 1228 1655 1339 741 900 400 444 885 860 523 450 813 623 422 56 10 0 15 426 552 923 1849 2592 2611 2569
742 836 858 779 880 966 1181 896 1059 887 1061 951 806 607 631 542 148 157 43 390 174 562 127 321 244 199 305 288 278 307 364 301 7 10 24 301 354 713 654 1559 2611 2546 2241
368 479 634 726 680 633 632 871 942 858 757 665 422 479 386 188 19 22 0 137 53 89 97 12 0 25 36 75 169 174 186 307 85 46 43 688 1147 1027 883 1434 2718 2431 2244
180 252 349 585 518 500 491 744 742 822 872 599 437 399 110 0 0 11 5 56 1 17 100 109 16 0 0 0 0 11 172 203 551 298 199 657 1160 1477 1314 1535 2362 2576 2286
123 183 442 447 373 460 544 751 744 612 720 559 419 368 87 0 16 119 54 61 42 4 10 79 140 99 44 91 83 6 162 180 191 197 152 157 1058 1749 1979 1575 1852 2675 2076
372 284 513 437 336 441 646 748 628 581 657 661 683 416 90 41 57 96 72 80 41 7 50 193 189 164 79 108 232 155 74 159 171 181 143 106 310 2194 2064 2066 2437 2975 2629
538 359 520 571 527 547 603 658 581 484 495 390 451 443 523 194 60 30 85 30 11 6 9 30 88 113 110 97 65 113 204 109 141 278 135 122 217 651 1707 2441 2625 2778 2710
463 272 330 344 667 628 474 311 366 379 461 288 168 481 322 284 54 0 4 41 20 0 22 76 102 61 0 0 0 51 125 143 138 197 142 140 147 358 345 766 1987 2461 2245
308 264 238 223 479 435 219 366 387 343 300 326 259 553 365 338 218 0 0 7 83 45 21 53 110 3 1 0 25 276 105 99 73 85 76 157 292 494 533 720 1158 1354 2321
282 327 324 362 366 236 481 602 531 544 384 449 629 776 316 111 409 0 0 0 75 1 49 56 43 2 0 104 0 0 0 33 104 74 59 54 116 390 559 655 893 1226 1581
314 367 376 468 392 390 435 640 557 398 426 411 432 692 699 316 615 201 68 161 115 188 22 36 37 14 7 13 5 1 36 29 14 73 74 56 61 73 158 250 618 833 1199
376 371 440 528 422 515 449 418 373 359 454 492 383 338 706 583 606 658 364 149 322 134 295 89 54 126 50 30 64 3 16 33 0 0 15 0 46 0 63 153 124 275 457
393 412 361 240 385 361 541 543 551 617 571 434 371 423 583 714 425 717 483 163 287 0 2 21 2 0 64 51 31 29 23 1 0 0 0 0 0 0 0 27 251 245 254
680 493 292 346 390 446 605 631 580 464 363 232 178 243 445 573 384 530 497 393 260 219 226 202 304 203 39 24 11 27 61 37 0 0 0 0 0 0 0 6 1 78 402
261 89 55 69 18 87 484 468 548 446 379 262 260 261 227 396 523 441 495 461 399 287 154 98 91 88 264 114 7 19 19 36 44 3 20 9 18 0 6 51 8 77 145
CIN
-35 -33 -0 -0 -0 -0 -1 -0 -1 -0 -1 -2 -4 -1 -0 -1 -0 -0 -0 -0 -0 -0 -0 -0 -0 -0 -0 -0 -0 -1 -9 -0 -0 -0 -0 -0 -0 -1 -4 -0 -0 -2 -1
-92 -11 -0 -0 -0 -0 -0 -0 -0 -0 -0 -0 -1 -0 -0 -1 -4 -3 -0 -4 -3 -0 -0 -0 -0 -0 -0 -2 -0 -0 -0 -0 -0 -0 -0 -0 -0 -0 -2 -0 -0 -0 -0
-81 -3 -0 -0 -4 -2 -0 -0 -0 -0 -0 -0 -0 -0 -7 -12 -3 -2 -2 -2 -6 -1 -0 -3 -2 -0 -3 -11 -7 -0 -0 -0 -0 -0 -4 -51 -12 -0 -0 -2 -0 -0 -0
-71 -2 -0 -0 -0 -0 -0 -0 -0 -0 -0 -0 -0 -1 -11 -14 -20 -22 -7 -0 -3 -0 -0 -0 -24 -32 -18 -34 -26 -4 -0 -0 -0 -16 -202 -160 -11 -0 -0 -0 -25 -11 -0
-59 -2 -1 -0 -0 -0 -0 -0 -0 -0 -0 -4 -4 -8 -14 -28 -20 -22 -24 -13 -6 -1 -5 -3 -7 -23 -34 -49 -56 -45 -20 -5 -9 -172 -246 -225 -194 -11 -22 -12 -17 -22 -3
-66 -24 -1 -0 -0 -2 -10 -10 -3 -4 -7 -13 -15 -17 -19 -8 -0 -18 -19 -10 -40 -50 -38 -13 -8 -19 -29 -57 -43 -40 -51 -26 -14 -216 -356 -248 -226 -2 -22 -30 -21 -19 -4
-70 -20 -0 -0 -0 -1 -1 -6 -2 -4 -8 -8 -13 -12 -9 -4 -10 -0 -0 -1 -4 -15 -25 -15 -3 -9 -14 -20 -42 -37 -36 -61 -64 -258 -183 -304 -17 -52 -1 -28 -2 -3 -1
-67 -6 -1 -0 -0 -0 -0 -0 -0 -3 -0 -1 -0 -0 -0 -0 -0 -0 -0 -0 -0 -0 -1 -13 -2 -0 -7 -12 -6 -9 -10 -24 -32 -188 -327 -0 -301 -54 -0 -9 -0 -0 -0
-28 -12 -1 -2 -0 -0 -0 -0 -0 -0 -0 -0 -0 -0 -0 -0 -0 -0 -0 -0 -0 -0 -0 -0 -0 -1 -0 -0 -0 -1 -0 -2 -84 -142 -0 -0 -164 -19 -0 -0 -0 -0 -0
-21 -17 -21 -20 -4 -2 -2 -0 -0 -0 -0 -0 -0 -0 -0 -0 -0 -0 -0 -0 -0 -0 -1 -1 -0 -4 -0 -0 -0 -0 -5 -8 -152 -0 -183 -52 -157 -69 -6 -1 -5 -0 -0
-23 -21 -26 -48 -46 -17 -11 -2 -0 -0 -0 -0 -1 -0 -0 -7 -9 -3 -4 -1 -0 -0 -0 -4 -4 -1 -0 -0 -2 -0 -0 -64 -122 -0 -0 -123 -133 -98 -26 -2 -4 -0 -0
-76 -84 -64 -95 -65 -54 -21 -30 -21 -25 -17 -12 -14 -44 -26 -26 -45 -26 -12 -0 -0 -0 -6 -7 -5 -1 -2 -27 -36 -5 -42 -83 -132 -131 -0 -110 -86 -77 -52 -17 -0 -0 -0
-156 -109 -99 -93 -84 -68 -45 -81 -63 -68 -45 -43 -40 -45 -49 -55 -107 -99 -128 -61 -85 -33 -37 -10 -16 -41 -45 -54 -58 -57 -55 -70 -130 -149 -56 -81 -102 -74 -81 -25 -0 -0 -1
-202 -165 -123 -108 -112 -109 -92 -81 -74 -77 -77 -79 -88 -70 -70 -92 -172 -180 -0 -99 -126 -89 -67 -41 -0 -117 -148 -114 -83 -68 -72 -85 -129 -156 -152 -60 -40 -64 -82 -37 -0 -0 -1
-276 -238 -204 -139 -153 -139 -126 -100 -97 -93 -87 -112 -106 -93 -133 -0 -0 -203 -139 -111 -72 -204 -102 -90 -62 -0 -0 -0 -0 -150 -109 -109 -72 -144 -179 -87 -47 -34 -39 -29 -0 -0 -0
-263 -276 -229 -189 -188 -161 -148 -120 -124 -130 -122 -130 -122 -120 -161 -0 -127 -119 -139 -120 -162 -164 -208 -119 -95 -108 -148 -150 -167 -34 -112 -155 -151 -167 -205 -181 -66 -31 -18 -20 -1 -0 -0
-215 -220 -222 -215 -215 -183 -155 -135 -148 -154 -127 -128 -116 -133 -180 -156 -148 -137 -145 -147 -189 -225 -154 -79 -80 -92 -127 -124 -94 -112 -122 -127 -149 -155 -195 -205 -155 -22 -18 -8 -0 -0 -0
-166 -245 -254 -198 -200 -171 -161 -160 -168 -174 -153 -159 -151 -133 -111 -139 -162 -170 -150 -210 -195 -130 -171 -129 -115 -110 -120 -124 -140 -136 -108 -130 -135 -111 -193 -211 -180 -114 -34 -0 -0 -0 -0
-203 -277 -297 -232 -199 -168 -166 -195 -203 -180 -162 -171 -188 -119 -126 -134 -188 -0 -59 -201 -152 -0 -159 -114 -109 -147 -0 -0 -0 -133 -107 -123 -118 -136 -185 -207 -206 -164 -204 -119 -17 -3 -5
-256 -269 -292 -246 -213 -197 -252 -191 -186 -165 -166 -164 -153 -116 -117 -136 -153 -0 -0 -50 -131 -148 -196 -155 -107 -193 -162 -0 -175 -92 -113 -137 -161 -161 -190 -175 -175 -151 -154 -136 -95 -79 -14
-250 -230 -254 -253 -243 -248 -173 -140 -146 -114 -133 -130 -126 -110 -129 -164 -148 -0 -0 -0 -142 -13 -183 -179 -163 -183 -0 -114 -0 -0 -0 -174 -131 -149 -174 -204 -176 -142 -142 -130 -111 -80 -58
-275 -283 -234 -233 -293 -231 -172 -139 -148 -169 -141 -137 -154 -129 -132 -121 -109 -158 -157 -130 -157 -140 -200 -174 -162 -167 -40 -163 -44 -30 -62 -86 -172 -175 -182 -188 -196 -219 -171 -169 -134 -121 -97
-286 -255 -258 -229 -267 -225 -233 -203 -182 -156 -145 -140 -171 -160 -123 -128 -122 -107 -128 -152 -112 -159 -148 -200 -175 -121 -91 -123 -118 -174 -111 -72 -0 -0 -235 -0 -224 -0 -154 -188 -215 -183 -164
-271 -282 -281 -292 -248 -195 -243 -178 -144 -135 -114 -175 -172 -153 -107 -121 -127 -102 -113 -139 -119 -0 -57 -215 -69 -5 -133 -121 -121 -155 -169 -77 -0 -0 -0 -0 -0 -0 -0 -289 -193 -227 -225
-288 -317 -337 -278 -204 -172 -145 -159 -169 -177 -181 -198 -215 -180 -143 -126 -129 -112 -125 -103 -120 -131 -136 -130 -114 -130 -182 -158 -143 -157 -118 -117 -0 -0 -79 -11 -0 -0 -0 -354 -326 -281 -179
-314 -291 -288 -255 -194 -354 -128 -150 -170 -181 -163 -179 -175 -184 -191 -151 -133 -123 -128 -111 -113 -112 -132 -140 -149 -162 -133 -145 -58 -189 -163 -125 -106 -40 -71 -100 -209 -0 -321 -239 -191 -257 -218
Wind_Speed
8 8 14 16 16 17 17 17 16 16 17 18 18 18 18 18 16 16 16 16 16 14 15 16 17 17 17 18 17 17 17 16 15 15 16 16 15 14 14 13 12 9 13
14 10 15 16 17 17 17 17 17 16 16 17 18 18 17 17 15 15 15 16 16 15 14 15 16 17 17 18 16 17 16 15 15 14 12 14 15 14 14 12 12 10 12
16 12 13 14 16 17 17 17 17 17 17 17 17 17 17 17 15 14 13 14 13 13 14 15 15 15 15 17 16 15 14 14 14 13 10 4 5 12 11 14 12 12 12
15 12 12 16 15 17 17 17 17 17 17 16 16 16 16 15 14 13 12 12 11 11 11 12 13 15 14 16 15 12 12 12 12 11 4 5 4 12 11 11 11 11 9
13 10 11 17 16 17 17 18 17 17 16 16 16 15 15 13 12 11 11 10 9 9 9 10 9 11 11 10 14 12 9 8 9 8 4 4 3 7 12 10 9 9 7
11 7 13 19 18 18 17 16 16 16 15 14 14 13 13 12 12 13 12 10 9 7 7 8 9 8 8 7 9 9 9 6 7 5 4 2 2 5 10 11 9 8 6
10 10 11 18 17 17 16 16 15 14 13 12 11 10 11 11 12 11 10 11 10 9 8 8 8 8 7 6 6 8 8 6 5 4 4 3 3 4 8 11 9 8 7
13 10 10 16 18 17 17 17 15 14 12 11 11 11 10 10 10 10 10 10 10 10 10 10 10 10 9 8 7 7 7 7 4 5 4 3 5 7 8 9 8 9 8
11 11 9 9 14 18 16 17 16 13 13 13 12 10 11 10 10 9 9 10 10 10 9 9 9 9 10 10 10 8 9 10 4 2 5 3 7 9 7 10 9 8 7
9 9 9 7 7 9 9 17 16 15 14 13 12 12 11 10 10 9 9 8 9 9 9 9 8 8 8 8 7 8 8 10 5 4 3 3 9 8 8 7 9 9 9
7 7 6 7 6 6 6 10 15 16 15 13 12 12 9 2 3 5 5 8 9 10 8 7 7 8 8 7 5 7 9 3 5 3 3 7 11 10 11 7 11 10 9
12 8 7 7 8 6 6 5 6 5 4 4 4 4 3 3 3 4 5 10 10 10 8 7 7 8 7 2 1 6 1 3 3 3 3 8 13 12 11 11 11 11 10
14 11 11 9 9 9 7 4 3 2 2 3 5 5 2 3 3 1 2 2 1 7 2 4 3 1 1 2 2 1 2 3 2 2 4 11 12 13 13 12 12 12 12
13 13 11 11 10 8 4 5 4 4 3 3 4 5 3 2 3 3 3 2 2 1 3 2 1 3 3 3 4 3 3 4 3 3 5 12 12 13 14 14 14 14 13
12 14 13 11 11 10 6 4 4 6 5 4 4 5 4 4 4 3 3 3 2 2 3 3 4 4 4 5 5 3 5 5 7 4 3 12 13 13 14 15 16 16 14
13 14 12 13 11 10 9 9 7 5 5 5 4 6 6 4 4 4 4 4 4 3 3 3 4 4 4 4 5 4 5 5 6 5 3 4 14 15 16 17 18 17 16
15 13 13 14 11 11 11 10 7 7 6 6 6 7 7 7 6 5 4 3 4 3 4 3 2 2 3 3 5 4 4 6 6 9 5 4 5 15 17 18 17 16 17
12 15 15 13 13 12 11 8 7 6 5 5 4 5 8 7 7 5 4 4 3 3 3 3 2 2 2 3 2 4 4 4 6 8 5 4 4 4 10 16 18 18 18
16 15 14 14 14 14 9 6 7 7 5 5 4 5 6 6 6 5 4 3 4 3 3 2 2 1 1 2 3 3 4 4 5 4 5 5 5 5 4 10 17 18 20
13 15 15 12 13 11 5 4 2 2 2 3 4 5 7 6 7 5 3 4 4 3 3 3 3 2 2 2 2 2 2 3 4 4 5 4 4 5 4 5 6 10 20
8 12 17 14 10 8 4 4 3 4 3 2 3 5 6 6 7 6 4 4 4 4 4 4 3 3 2 0 2 2 2 3 4 4 4 4 5 7 5 5 4 3 6
16 14 14 14 11 10 7 4 3 3 2 3 3 4 5 7 7 6 6 5 5 4 5 4 4 2 2 3 3 1 1 4 1 2 3 4 7 5 7 8 7 7 7
17 17 16 16 14 12 7 4 3 2 2 1 2 3 4 6 7 8 6 5 5 4 4 5 5 5 3 3 4 3 2 4 1 1 2 3 4 3 4 6 9 9 8
14 6 8 7 4 3 8 9 7 5 5 4 4 3 4 5 7 6 6 6 6 4 5 5 5 5 4 4 2 4 2 2 1 4 2 3 4 4 5 4 5 8 10
9 9 6 5 10 3 7 10 9 4 3 2 2 5 5 4 6 6 7 6 6 5 4 6 4 5 4 3 3 2 1 1 1 2 4 2 2 4 4 4 5 4 7
6 8 6 5 4 7 6 7 9 8 6 4 4 4 4 4 4 5 7 6 5 5 5 5 5 6 5 4 3 3 4 4 3 3 3 4 3 3 4 4 4 4 5
Wind_Direction
171 165 155 150 142 135 131 130 126 121 117 115 116 117 115 117 120 120 115 112 107 109 110 113 109 108 108 106 107 111 116 116 112 112 112 115 111 112 111 114 102 101 105
145 161 160 153 145 139 134 133 134 129 125 124 123 119 119 119 124 119 119 116 116 115 120 116 117 119 115 112 112 116 118 120 123 120 119 120 118 122 122 119 102 108 111
146 155 157 156 151 144 140 138 140 140 138 135 130 127 128 128 127 128 126 123 127 128 129 127 126 123 122 120 119 117 115 118 121 118 102 63 136 119 113 126 111 97 95
146 153 158 163 156 149 146 145 148 148 147 143 139 139 141 140 141 137 133 138 141 142 139 139 139 138 136 128 119 117 120 125 127 117 95 42 67 124 116 112 114 106 101
145 151 158 162 160 155 154 152 153 154 152 148 145 146 145 147 147 152 152 153 157 153 161 159 160 154 140 134 123 121 119 142 142 125 109 90 20 132 126 120 117 115 119
140 147 166 163 165 161 157 154 155 158 156 150 146 146 148 151 156 166 168 170 180 183 194 188 190 203 213 190 145 144 144 164 166 118 132 146 115 151 141 131 133 131 135
142 153 169 162 166 165 160 161 163 162 160 156 158 164 165 168 177 176 176 187 193 199 215 209 204 215 218 188 159 165 171 179 133 123 133 164 210 208 156 142 146 141 147
145 152 165 167 167 170 169 166 169 173 171 172 178 182 177 185 188 191 195 205 208 209 211 224 225 224 216 221 205 174 180 189 210 156 157 155 202 206 173 157 157 156 165
148 149 163 168 172 171 178 175 174 178 182 185 184 189 194 196 200 205 205 212 214 213 213 216 220 221 225 225 214 193 207 204 176 185 181 176 200 181 182 165 162 179 184
154 160 159 156 170 172 180 182 182 183 191 197 193 198 204 207 212 215 215 221 212 209 208 211 206 215 221 219 215 205 209 215 148 198 210 196 205 201 187 183 174 191 188
160 163 169 164 157 158 162 182 184 189 194 196 204 208 209 204 238 227 216 223 216 210 213 206 214 216 217 217 209 201 200 175 169 182 179 199 208 219 200 196 185 199 204
171 173 176 174 166 163 171 180 171 194 196 196 205 203 180 174 215 215 228 219 223 222 215 208 219 220 216 161 266 220 115 174 190 187 186 223 220 217 217 206 210 206 211
178 172 180 180 175 177 183 168 171 183 194 212 204 213 160 172 223 225 217 257 302 232 240 215 227 276 217 182 222 246 138 193 196 203 228 220 224 222 229 218 220 216 217
178 182 184 186 181 186 171 183 184 183 197 200 207 208 175 184 211 231 228 208 185 230 219 222 229 256 262 238 227 217 185 199 205 211 225 245 232 217 218 222 227 223 222
183 185 185 191 187 186 180 175 184 203 204 198 192 203 182 188 201 223 239 200 184 201 221 205 223 243 250 247 248 215 226 216 214 216 191 232 233 222 220 223 235 228 229
192 196 181 194 196 185 190 184 199 195 210 187 191 206 190 187 202 215 189 208 216 203 208 221 212 220 233 233 243 205 213 225 249 245 208 233 246 231 221 223 233 231 232
194 187 189 193 192 193 195 194 196 201 199 198 203 204 191 186 209 187 206 197 210 222 231 194 202 205 245 227 249 226 199 216 240 246 234 221 241 235 224 219 228 231 230
184 190 190 194 189 198 197 197 195 205 195 202 189 186 203 188 189 188 198 207 199 203 210 196 185 218 195 196 245 253 235 224 213 223 214 211 204 211 218 219 223 225 230
190 185 190 193 189 195 202 197 194 195 186 203 178 187 187 182 173 185 192 219 209 194 223 175 229 199 242 234 223 232 231 240 232 209 216 215 213 214 204 221 227 230 233
191 187 182 191 187 184 176 152 134 147 192 198 209 191 171 177 184 177 187 217 194 196 212 200 210 216 221 248 270 267 233 248 245 207 215 217 220 226 225 218 221 224 230
201 188 188 179 176 160 162 160 160 187 177 208 219 205 177 171 193 179 199 182 207 192 208 196 153 209 234 127 16 306 273 206 240 225 218 206 211 214 212 215 224 224 229
196 196 192 191 171 174 175 172 150 170 182 175 201 226 207 183 190 196 195 197 197 206 189 186 176 170 236 185 196 91 340 322 304 195 220 221 228 195 215 221 215 219 222
189 196 191 189 176 177 163 130 88 91 53 158 202 217 226 195 192 193 194 195 203 198 192 178 188 192 197 224 218 166 131 226 283 310 252 252 218 208 213 217 215 219 224
201 148 130 121 103 217 165 173 170 179 172 211 191 203 220 202 197 181 204 184 195 202 190 192 181 199 174 179 201 236 93 126 129 321 276 255 248 253 243 247 227 217 220
125 133 116 106 117 190 213 196 186 166 185 213 187 194 218 217 211 172 202 190 193 211 208 195 187 202 182 172 184 153 126 126 159 166 280 275 273 232 237 234 231 243 226
104 117 104 105 273 52 234 212 195 178 189 176 214 211 210 211 219 203 196 191 201 217 204 212 215 207 202 206 191 187 178 163 196 178 231 274 251 275 221 234 224 227 233